Location: Newark
(44.3681°N, 100.3364°W)
Time: 16:29:48
(UTC+00:00)

Vanguard 1 - Visible Passes

Search period start: 19 February 2020 00:00
Search period end: 29 February 2020 00:00
Orbit: 650 x 3833 km, 34.2° (Epoch: 18 February)

Date Brightness Start Highest point End Pass type
(mag) Time Alt. Az. Time Alt. Az. Time Alt. Az.
19 Feb 14.7 11:42:02 10° SSE 11:47:20 11° SE 11:52:18 10° ESE visible
20 Feb 14.5 11:56:07 10° S 12:08:08 17° SE 12:18:33 10° ESE visible
21 Feb 14.3 12:13:27 10° S 12:28:57 23° SE 12:41:47 10° E visible
22 Feb 14.2 12:32:01 10° SSW 12:49:49 29° SE 13:04:02 10° E visible
23 Feb 14.4 10:39:28 10° SSE 10:47:39 13° SE 10:55:28 10° ESE visible
23 Feb 14.0 12:51:17 10° SSW 13:10:44 36° SSE 13:25:45 10° E visible
24 Feb 14.3 10:54:52 10° S 11:08:15 19° SE 11:20:38 10° E visible
25 Feb 14.2 11:12:33 10° S 11:28:53 25° SE 11:43:43 10° E visible
26 Feb 14.0 11:31:16 10° SSW 11:49:37 31° SE 12:05:57 10° E visible
27 Feb 14.2 09:38:50 10° SSE 09:47:43 14° SE 09:56:38 10° ESE visible
27 Feb 13.8 11:50:37 10° SSW 12:10:25 38° SSE 12:27:42 10° E visible
28 Feb 14.1 09:54:43 10° S 10:08:06 20° SE 10:21:35 10° E visible
28 Feb 13.7 12:10:28 10° SW 12:31:19 44° SSE 12:49:10 10° E visible
